This is the latest recevied weather packets stored in our database for station/object KJ4EBE. If no packets are shown the sender has not sent any weather packets the latest 10 day(s).
| Time | Temp. | Humidity | Pressure | Rain* | Wind** | Luminosity | Snow |
|---|---|---|---|---|---|---|---|
| 1777380824 | 23.89° C | 93% | 1011.6 hPa | 0 mm | - | 23 W/m² | - |
| 1777380522 | 23.89° C | 93% | 1011.4 hPa | 0 mm | - | 14 W/m² | - |
| 1777380218 | 23.89° C | 93% | 1011.4 hPa | 0 mm | - | 15 W/m² | - |
| 1777379914 | 23.89° C | 94% | 1011.4 hPa | 0 mm | - | 18 W/m² | - |
| 1777379609 | 23.89° C | 94% | 1011.1 hPa | 0 mm | - | 8 W/m² | - |
| 1777379306 | 23.89° C | 94% | 1011.3 hPa | 0 mm | - | 9 W/m² | - |
| 1777379000 | 23.89° C | 94% | 1011.5 hPa | 0 mm | - | 5 W/m² | - |
| 1777378696 | 23.89° C | 93% | 1011.1 hPa | 0 mm | - | 3 W/m² | - |
| 1777378393 | 23.89° C | 93% | 1011.1 hPa | 0 mm | - | 3 W/m² | - |
| 1777378087 | 23.89° C | 93% | 1011.3 hPa | 0 mm | - | 2 W/m² | - |
| 1777377782 | 23.89° C | 93% | 1011 hPa | 0 mm | - | 1 W/m² | - |
| 1777377476 | 23.89° C | 93% | 1011 hPa | 0 mm | - | 1 W/m² | - |
| 1777377172 | 23.89° C | 93% | 1010.9 hPa | 0 mm | - | 0 W/m² | - |
| 1777376870 | 23.89° C | 93% | 1010.9 hPa | 0 mm | - | 0 W/m² | - |
| 1777376567 | 23.89° C | 93% | 1010.7 hPa | 0 mm | - | 0 W/m² | - |
| 1777376263 | 23.89° C | 94% | 1010.6 hPa | 0 mm | - | 0 W/m² | - |
| 1777375958 | 23.89° C | 94% | 1010.8 hPa | 0 mm | - | 0 W/m² | - |
| 1777375653 | 23.89° C | 94% | 1010.8 hPa | 0 mm | - | 0 W/m² | - |
| 1777375347 | 23.89° C | 94% | 1010.6 hPa | 0 mm | - | 0 W/m² | - |
| 1777375045 | 23.89° C | 94% | 1010.6 hPa | 0 mm | - | 0 W/m² | - |
| 1777374739 | 23.89° C | 94% | 1010.5 hPa | 0 mm | - | 0 W/m² | - |
| 1777374436 | 23.89° C | 94% | 1010.6 hPa | 0 mm | - | 0 W/m² | - |
| 1777374128 | 23.89° C | 94% | 1010.6 hPa | 0 mm | - | 0 W/m² | - |
| 1777373823 | 23.89° C | 94% | 1010.6 hPa | 0 mm | - | 0 W/m² | - |
| 1777373521 | 23.89° C | 94% | 1010.7 hPa | 0 mm | - | 0 W/m² | - |
* Rain latest hour (hover to see other rain measurements)
** Current wind speed in m/s (hover to see current wind gust speed)